Wind_Speed
19 19 19 18 17 17 17 17 16 16 16 15 14 14 13 13 13 14 15 16 17 17 18 19 17 14 12 11 10 10 11 13 12 12 13 14 14 15 17 18 19 20 20 20 20 21 21 22 22 22 22 21 21 22 22 23 23 23 24 24 24 25 25 25 26 26 25 24 25 25 26 26 28 29 29 30 32 32 32 33 31 30 31 31 33 34 34 33
19 19 19 18 18 17 16 16 15 14 14 13 13 12 12 12 12 12 13 13 12 10 10 8 9 8 7 6 5 5 7 9 10 11 12 13 14 15 16 18 18 18 18 19 19 19 19 19 20 20 19 19 19 20 21 21 22 22 23 22 23 23 23 24 23 24 24 24 25 26 26 27 29 30 29 28 29 30 31 29 28 29 30 32 35 35 36 35
20 19 18 18 17 16 15 14 13 13 12 12 11 11 11 11 10 9 7 7 5 3 3 1 3 4 4 4 5 6 8 9 10 11 12 14 14 15 16 16 17 17 17 17 17 17 17 18 19 19 20 20 20 20 21 21 21 22 22 22 22 22 23 24 24 24 25 25 26 26 26 28 29 28 28 28 27 28 29 29 29 29 29 31 34 36 38 38
19 18 17 16 15 14 14 13 12 11 11 11 11 11 10 9 8 5 3 3 2 1 1 1 2 4 5 6 7 8 9 10 11 12 13 13 14 15 15 16 16 16 16 16 16 16 17 18 18 19 19 20 20 20 20 21 21 22 23 22 22 23 24 25 25 25 26 26 25 25 25 27 27 27 27 29 28 27 29 32 32 31 31 31 34 36 39 40
18 17 16 15 14 13 12 11 11 10 10 10 10 10 9 8 7 5 4 3 3 3 3 4 5 6 7 8 9 10 11 12 13 13 13 13 13 14 15 15 15 15 15 15 15 16 17 17 18 18 18 18 19 19 20 21 21 22 23 23 23 23 23 24 24 24 24 25 24 24 25 26 25 26 28 30 31 30 31 33 34 35 35 35 36 37 40 43
17 16 16 15 14 13 11 10 10 10 10 10 9 8 7 7 7 6 5 4 4 4 6 6 7 8 9 10 11 12 12 12 12 12 12 12 13 13 14 14 14 14 15 15 15 16 16 16 17 17 17 18 18 19 19 20 21 21 21 21 21 20 21 22 22 23 23 23 24 25 26 26 26 27 29 31 33 35 35 35 37 38 40 41 41 42 43 45
17 17 16 15 14 12 11 10 10 10 9 9 8 8 7 7 7 6 5 5 6 6 7 8 9 10 10 11 11 10 10 10 10 11 11 11 12 13 13 13 13 14 14 15 16 16 16 16 17 17 17 17 17 18 18 18 19 19 19 19 19 19 20 21 22 23 23 24 25 27 28 29 28 28 30 32 35 37 38 39 41 42 44 45 45 45 46 46
18 17 17 15 14 12 11 11 10 10 9 9 9 8 8 7 6 6 6 6 7 7 8 9 10 10 10 9 9 8 8 9 9 10 10 11 12 12 12 13 13 14 14 15 15 15 15 15 16 16 16 16 16 17 17 17 18 18 18 19 20 21 21 22 23 24 25 25 27 29 31 31 31 32 32 34 36 39 40 42 44 45 46 47 47 47 47 47
18 17 16 15 14 13 12 11 11 10 9 9 9 8 8 7 6 6 6 7 7 8 9 9 9 8 7 7 6 7 7 8 9 9 10 11 11 11 12 13 14 13 13 13 13 13 14 14 14 15 15 15 16 17 17 18 19 20 19 20 21 22 23 24 25 26 26 27 28 30 33 34 33 34 34 36 38 40 42 43 45 46 46 47 47 47 47 47
18 17 16 15 14 13 12 11 10 9 9 8 8 7 6 6 6 6 6 7 7 8 7 7 6 5 5 5 5 6 7 8 8 9 10 10 11 11 11 12 12 11 11 12 12 13 13 14 14 15 15 16 17 17 18 18 20 21 21 22 22 24 25 26 27 28 28 28 28 30 33 34 34 35 36 38 40 41 42 44 45 45 46 46 46 47 47 46
18 17 16 15 14 13 12 11 10 9 9 7 6 5 5 5 5 5 6 6 6 5 4 3 3 4 4 4 5 6 7 7 8 8 9 10 10 10 10 11 11 11 12 12 13 13 14 15 15 16 16 17 17 18 18 19 20 22 24 25 25 25 26 28 28 29 29 28 27 28 32 35 35 35 36 38 40 41 41 42 43 43 44 45 45 46 46 46
17 16 15 14 13 12 12 11 10 9 7 5 4 4 4 4 5 5 4 4 3 2 2 2 2 3 3 4 5 5 6 6 7 8 9 9 9 9 9 10 11 12 13 14 14 14 15 15 16 16 17 18 18 19 20 21 22 24 25 26 28 28 26 27 28 28 28 28 26 27 31 34 34 35 36 38 40 40 40 40 40 41 42 43 43 44 45 45
16 15 14 13 13 12 11 10 8 6 5 4 4 4 4 4 4 3 2 2 2 1 1 1 2 3 3 4 4 5 5 6 7 7 7 8 8 8 9 11 12 13 14 15 15 15 15 15 16 17 19 20 21 22 22 23 23 24 24 25 26 27 27 26 27 28 28 29 28 28 31 34 34 35 36 37 39 39 39 39 39 40 41 41 42 43 44 45
15 14 13 12 11 10 9 8 6 5 6 5 5 5 5 4 3 2 1 1 1 0 1 1 2 2 2 3 4 5 6 6 7 7 7 8 9 9 10 12 13 14 15 15 16 16 17 18 19 21 21 22 23 23 23 23 24 23 23 24 24 24 26 26 26 28 29 31 32 32 35 37 36 37 38 38 38 38 39 39 40 40 41 41 42 43 44 45
14 13 12 11 10 10 9 8 8 8 8 7 7 6 5 3 2 2 2 2 1 1 0 1 2 2 3 4 4 5 5 5 6 7 8 10 11 12 12 13 15 16 16 17 19 20 21 22 23 23 23 23 23 23 24 24 24 24 24 25 25 26 27 28 29 30 31 32 33 35 38 40 39 40 40 39 39 40 40 41 41 42 42 43 43 43 44 45
14 13 13 12 12 11 12 12 12 11 10 9 7 6 4 4 4 3 3 2 2 3 3 4 4 4 4 4 4 4 4 5 7 8 9 10 12 13 14 16 17 18 20 21 22 23 24 24 24 24 23 23 23 24 24 25 25 26 27 28 29 30 30 30 31 32 33 34 35 36 39 41 40 40 40 40 40 41 41 42 43 43 44 45 45 44 44 44
16 16 16 16 16 16 16 15 14 12 10 9 7 7 6 6 5 5 4 4 5 5 5 5 5 4 4 3 3 4 6 8 9 10 11 12 13 15 16 19 20 22 23 23 24 24 24 23 23 24 24 25 26 25 25 26 27 29 30 31 32 33 33 32 32 33 33 34 36 37 40 41 40 40 40 40 41 42 43 44 44 45 46 47 47 47 46 46
21 21 21 21 21 20 18 16 14 12 11 10 9 9 8 8 7 7 6 6 6 5 5 4 4 4 4 4 5 7 9 11 12 12 14 15 16 18 19 21 23 23 23 23 23 23 24 24 25 27 28 29 29 29 30 31 32 32 32 32 32 33 33 34 33 33 34 35 36 37 39 40 40 40 40 41 43 44 46 46 47 47 49 50 51 51 51 50
26 26 25 23 22 20 18 16 14 13 13 12 11 10 10 9 9 8 7 6 5 6 5 3 4 5 6 7 8 9 10 12 13 14 16 18 19 21 22 23 23 23 23 23 24 26 27 28 28 30 31 31 31 33 34 34 34 34 34 34 34 34 33 34 34 35 35 36 38 38 39 40 40 41 42 44 46 47 49 49 50 51 52 53 55 55 54 54
28 27 25 24 22 20 19 18 17 16 15 14 13 12 11 10 9 8 6 6 6 6 5 4 6 7 8 9 10 11 12 14 16 17 19 20 21 22 22 23 23 24 25 26 28 29 30 30 30 31 32 33 34 35 35 35 35 35 35 35 35 35 34 34 35 36 37 39 40 41 42 42 43 44 45 47 48 50 51 51 52 52 53 54 55 55 55 54
29 27 26 24 23 22 20 19 18 17 16 14 14 12 11 10 9 7 7 7 7 6 5 6 7 8 9 10 12 14 15 17 19 20 20 21 21 22 23 24 25 26 27 29 30 31 31 31 32 33 34 35 36 36 36 35 36 36 37 36 36 36 35 35 37 38 40 41 41 43 44 45 46 47 49 50 52 53 53 53 53 54 55 55 55 55 54 53
29 28 26 25 24 22 21 19 18 17 16 15 14 12 11 10 9 8 8 8 7 7 7 7 7 10 12 13 15 17 18 19 20 21 21 21 22 23 24 25 26 27 28 29 31 32 33 33 33 35 36 36 36 36 36 37 38 38 38 37 36 37 37 36 37 40 42 43 43 45 46 47 48 50 52 53 54 55 56 57 58 58 59 58 57 56 55 54
30 28 27 25 23 22 21 19 17 16 15 14 13 12 11 10 9 9 9 8 7 8 8 9 10 13 16 17 18 19 19 20 20 21 22 22 23 24 24 26 27 28 29 30 32 33 34 34 36 37 37 37 38 37 37 37 37 37 37 37 37 39 41 40 41 43 44 45 46 47 47 48 50 51 53 55 56 57 59 60 62 62 62 61 60 60 59 59
29 28 26 25 23 22 20 19 17 15 14 13 13 13 12 11 11 11 11 10 10 10 11 13 15 16 17 18 18 18 19 19 20 21 22 22 23 24 25 27 29 30 31 32 33 34 35 37 38 38 39 39 39 39 38 37 36 36 37 38 39 41 43 44 45 45 45 47 49 50 50 50 51 53 55 57 58 59 61 62 63 64 64 64 65 65 66 66
29 27 26 25 23 21 20 18 16 14 13 13 13 13 12 13 13 13 12 12 12 12 14 15 15 15 16 17 17 18 19 19 20 20 22 23 25 27 27 28 31 32 32 34 35 36 37 38 39 39 39 40 39 39 39 39 37 37 38 39 41 43 44 46 47 47 47 48 51 54 55 53 54 56 58 59 60 61 62 63 64 65 66 68 69 70 71 72
27 26 25 23 21 20 18 17 15 14 13 14 14 13 13 13 13 12 13 13 13 14 15 15 15 15 17 18 18 19 20 19 21 22 24 25 26 29 30 31 33 33 34 35 36 37 38 39 40 40 39 39 38 38 38 39 39 39 41 42 44 45 46 47 48 50 50 50 53 56 57 58 57 59 61 62 63 64 65 66 67 68 70 72 73 75 76 77
25 24 22 21 20 19 18 17 15 15 16 16 16 15 14 14 13 13 14 13 13 13 13 15 16 17 17 18 19 20 20 22 23 25 26 28 29 31 33 34 35 36 36 37 37 38 39 40 40 40 39 38 38 39 40 41 42 42 44 45 46 47 48 50 51 52 53 54 57 58 59 62 63 63 65 66 67 68 68 69 71 73 75 77 78 79 80 80
23 22 21 20 20 19 19 18 18 18 18 18 18 16 15 14 13 13 13 12 13 14 14 16 17 18 17 18 19 21 22 24 25 26 27 29 32 33 33 35 37 37 38 38 38 39 40 40 40 40 38 37 39 40 41 42 43 44 45 46 47 48 50 52 54 56 57 58 59 60 63 66 67 67 68 70 71 73 73 74 77 79 80 82 83 84 85 85
22 21 21 20 20 19 19 19 19 18 18 17 16 15 15 14 13 12 13 13 15 16 17 18 18 18 18 19 22 23 25 26 28 29 30 31 33 34 35 36 37 37 38 39 39 39 39 39 39 39 39 38 38 39 41 43 44 45 45 46 48 51 53 56 58 59 60 60 60 63 67 69 71 71 71 75 77 77 78 79 81 82 84 86 88 89 89 88
20 19 19 19 18 18 18 17 17 16 15 15 14 14 15 16 14 13 14 16 17 18 18 19 19 20 21 22 24 26 27 28 30 32 32 33 33 33 34 34 34 35 36 37 38 38 38 38 38 38 39 40 40 41 42 43 44 45 46 48 50 53 57 59 60 60 61 60 61 65 68 71 76 77 76 79 80 79 80 81 83 86 88 91 92 92 91 88
19 18 18 17 17 16 16 15 14 14 14 15 15 16 17 18 17 16 17 17 17 18 19 19 20 21 23 24 25 27 29 30 31 32 32 32 33 33 33 33 34 36 36 36 38 38 38 37 37 39 40 41 41 42 43 44 45 47 49 52 54 57 60 61 62 62 63 63 64 68 72 74 79 81 80 80 79 79 82 84 87 90 92 94 94 93 90 87
18 18 17 16 15 14 14 14 14 14 14 16 18 18 18 18 18 18 18 18 18 19 19 20 21 22 24 25 27 29 31 32 33 34 34 34 35 35 36 37 37 37 38 38 37 36 36 36 37 39 40 41 43 44 45 46 47 49 53 57 62 64 64 65 66 66 67 67 67 71 76 78 80 81 80 79 79 81 84 87 90 92 94 95 94 92 89 86
18 17 16 16 15 14 14 13 14 15 16 19 20 19 19 18 17 18 18 18 18 19 19 20 22 23 25 26 28 30 31 33 35 36 36 36 36 37 37 37 37 37 39 39 38 36 35 36 37 39 40 42 44 47 48 49 51 54 58 63 66 68 68 68 69 70 71 71 69 72 77 78 79 80 78 79 81 84 87 89 92 93 95 94 91 89 87 83
17 16 15 15 15 15 14 13 15 18 20 20 19 18 19 18 17 18 17 18 19 19 21 22 23 25 27 28 30 31 32 34 35 36 36 36 36 36 36 36 36 38 39 39 40 39 36 37 39 39 41 43 45 47 49 49 52 55 60 63 65 66 68 70 71 72 74 75 74 74 76 77 77 79 79 81 84 85 88 90 92 93 93 92 91 88 85 80
15 15 15 15 15 15 15 15 18 21 20 18 17 18 18 16 16 17 18 19 21 22 24 25 26 28 30 31 32 32 33 34 35 36 36 36 35 35 36 36 37 38 39 40 42 41 37 36 38 40 41 44 45 47 48 50 52 56 60 63 64 66 69 71 72 73 74 77 78 77 77 77 77 78 79 83 86 87 87 89 90 92 92 90 88 84 80 77
14 14 15 15 15 16 17 19 20 20 18 16 16 17 16 15 16 19 20 22 23 25 26 27 28 29 30 31 32 33 34 35 35 35 35 35 36 36 37 38 39 40 41 42 43 42 39 37 38 40 42 45 47 48 49 51 54 58 61 63 65 67 71 72 72 72 74 78 79 77 79 82 81 80 83 86 88 87 86 88 90 90 88 86 82 79 78 77
14 15 15 16 18 19 19 19 19 19 16 15 16 16 16 17 19 20 22 23 25 26 27 28 28 29 30 31 33 34 35 36 36 36 36 36 37 37 38 39 40 41 42 43 43 43 43 40 39 42 44 46 48 50 51 53 56 60 63 64 66 68 70 72 73 74 76 80 79 78 83 86 83 83 87 88 87 86 87 89 90 88 85 81 78 77 76 74
14 16 17 19 21 20 19 18 18 16 14 14 16 16 16 18 20 21 23 25 26 26 27 28 28 30 31 33 34 35 36 36 36 36 37 37 38 38 40 41 41 42 43 44 43 43 44 43 41 43 46 47 49 50 52 55 58 62 64 67 69 70 71 72 74 77 79 81 82 82 86 88 85 86 89 89 87 88 89 90 89 86 81 78 76 74 70 66
14 17 20 21 20 19 16 16 15 14 14 16 17 17 18 19 21 23 24 26 26 26 27 28 29 31 32 33 35 36 36 36 36 37 37 38 39 40 40 42 42 42 43 44 44 44 45 45 44 45 47 48 49 51 53 56 59 62 65 67 69 71 72 72 74 77 79 81 83 87 90 90 87 88 90 89 88 89 89 88 85 82 78 75 72 66 60 56
15 19 21 20 19 17 14 13 14 15 17 18 17 17 19 21 22 24 25 25 25 26 28 29 31 32 33 34 34 35 36 36 37 38 38 39 40 41 41 42 42 43 43 43 44 44 45 46 45 46 47 49 51 53 55 58 62 65 67 69 70 71 72 74 75 77 78 80 82 88 94 93 89 89 90 88 88 88 88 86 81 77 74 70 63 55 51 50
18 21 20 18 16 14 11 12 16 18 18 18 18 19 20 22 23 24 24 24 25 27 29 31 32 33 34 34 34 34 35 36 38 38 39 39 41 42 42 43 42 43 44 43 44 46 47 47 48 48 49 50 52 54 57 61 65 68 71 72 73 74 75 77 79 78 77 79 82 88 95 95 90 90 90 87 87 88 86 82 77 73 69 62 52 47 47 49
20 20 17 15 13 10 10 15 18 17 17 18 19 21 22 22 23 24 24 25 27 28 30 32 34 35 35 35 35 35 35 37 38 39 40 40 41 42 43 43 43 43 44 44 45 47 48 48 49 50 51 51 53 56 60 63 67 70 72 73 75 75 76 79 81 80 80 82 86 90 95 95 91 90 89 86 87 87 84 79 73 69 63 52 45 43 45 47
19 17 14 12 11 10 13 17 16 15 17 18 19 21 22 22 23 24 25 27 28 30 32 34 35 36 36 36 37 38 38 38 39 40 41 41 42 42 43 43 43 44 45 45 46 48 49 50 50 50 50 51 53 56 60 63 66 68 70 72 72 73 75 78 80 82 84 87 90 92 95 95 91 89 88 87 87 86 82 75 69 64 56 45 41 42 44 45
17 14 12 11 11 12 14 15 15 16 18 19 20 22 23 23 24 25 27 28 30 33 34 35 36 37 38 39 40 41 41 41 41 41 42 42 42 43 43 44 44 45 45 46 47 49 50 52 53 54 55 56 57 59 62 63 66 68 70 71 71 73 77 80 82 84 87 90 91 92 96 97 93 89 89 88 87 86 80 71 63 57 50 42 40 43 44 45
14 12 11 10 11 14 15 15 16 17 19 20 21 22 23 24 25 26 28 31 33 34 35 36 37 39 40 42 42 43 43 43 43 43 43 43 43 44 44 45 45 46 46 46 48 49 51 54 55 56 59 62 64 65 67 69 71 72 73 73 74 77 81 83 86 88 90 93 94 92 96 99 95 91 91 89 87 85 78 68 59 50 42 39 41 43 44 44
12 11 10 10 12 15 15 16 17 19 20 21 22 23 23 24 26 28 31 33 34 35 35 37 40 41 43 44 44 44 44 45 45 44 44 44 44 44 45 46 46 46 46 47 48 49 51 54 55 55 58 62 65 67 70 73 75 75 76 75 77 80 84 88 90 90 91 95 97 95 96 100 97 94 92 89 86 84 76 66 57 46 39 38 40 42 42 41
11 10 10 12 14 15 16 17 18 19 20 21 22 23 24 26 28 30 33 34 35 36 37 39 42 44 45 46 46 46 45 45 45 45 45 45 44 44 45 46 47 46 47 47 48 50 52 54 55 55 57 61 64 66 69 73 75 76 76 76 79 82 86 90 92 91 91 95 98 98 97 99 98 94 92 88 85 83 74 63 54 45 39 39 41 41 41 39
11 10 11 13 15 16 16 17 18 19 20 22 24 25 27 29 31 33 34 35 36 38 40 42 44 46 47 48 49 49 49 48 46 46 46 47 46 45 45 47 47 47 47 48 49 50 52 54 56 56 57 60 64 66 69 71 73 75 76 77 80 83 87 92 93 92 91 94 98 99 97 97 96 93 91 88 84 81 72 61 51 43 38 39 41 41 39 38
11 12 13 13 15 16 16 18 20 21 22 25 27 28 30 32 33 35 36 37 39 41 43 45 46 47 48 49 51 51 52 52 50 50 49 49 49 48 47 48 48 48 48 49 49 51 53 54 56 57 58 60 64 66 69 71 73 74 75 78 81 84 88 93 94 92 92 95 96 97 97 96 94 92 91 88 82 77 68 56 45 37 36 38 40 39 39 37
12 14 14 14 15 17 18 20 22 24 26 28 30 31 33 34 35 36 38 40 42 44 46 47 48 49 49 50 51 52 53 53 53 53 52 51 51 51 50 49 49 49 49 49 50 52 53 54 56 58 60 61 64 66 68 71 73 74 76 79 82 84 87 92 95 92 93 96 97 97 97 97 94 92 91 86 79 73 64 51 41 34 35 39 40 39 37 36
15 15 15 17 18 19 22 23 25 27 29 31 32 34 34 35 36 38 40 42 44 46 47 48 49 50 50 51 51 52 52 53 53 53 53 52 52 52 51 50 49 49 49 49 51 52 54 55 56 59 61 62 65 67 68 70 72 75 79 81 83 85 88 92 95 92 92 97 100 99 100 99 96 93 91 86 78 70 59 47 40 37 37 40 41 39 37 36
18 18 19 21 22 24 26 27 28 30 32 33 34 35 35 36 37 39 42 44 45 47 48 49 50 51 51 52 52 52 53 53 52 53 53 53 53 52 51 50 49 49 49 50 52 53 55 56 58 60 62 64 66 68 70 72 74 77 81 84 86 89 91 93 95 93 92 96 99 100 100 99 96 92 90 86 79 67 53 41 38 40 40 40 39 38 39 39
Wind_Direction
205 209 212 215 218 221 224 226 227 229 231 234 239 245 253 261 268 273 271 270 270 278 282 267 257 259 263 271 283 283 266 263 270 272 276 282 290 297 300 299 300 302 305 308 309 310 311 312 313 312 311 309 307 306 305 304 303 302 301 300 299 298 297 296 295 295 295 292 291 290 289 286 283 283 283 284 286 286 286 288 290 292 292 289 283 279 279 279
206 209 212 216 218 221 223 225 226 229 231 234 240 246 253 260 268 273 271 270 269 286 300 267 240 247 256 269 281 274 261 262 269 275 284 294 301 301 300 300 303 306 309 310 311 312 312 314 316 317 317 315 313 311 310 308 306 304 302 301 300 299 298 295 293 293 291 289 289 289 288 285 282 282 284 284 287 287 285 288 290 288 286 283 281 279 279 279
206 210 213 216 218 221 222 224 225 226 229 233 238 242 249 258 265 273 275 275 272 295 326 282 224 237 239 252 261 261 262 271 282 292 300 302 302 301 302 304 307 309 309 309 310 311 312 313 313 313 312 311 310 308 307 305 304 303 300 299 298 297 296 293 292 292 290 289 290 290 288 286 284 287 289 287 289 289 287 287 285 284 284 284 284 282 281 281
203 207 209 213 215 217 217 218 219 221 225 230 235 241 247 251 252 259 272 282 300 323 298 263 250 246 250 260 266 275 284 294 302 305 305 303 304 304 306 307 308 309 309 311 312 312 311 310 308 306 305 305 305 304 303 302 301 300 298 298 298 297 297 295 295 294 293 292 292 292 289 289 290 294 293 290 290 291 289 287 286 285 284 283 283 283 283 282
198 201 204 206 207 207 208 208 211 216 222 229 235 240 240 238 241 248 255 264 287 292 267 258 264 271 279 285 290 298 304 307 307 307 306 307 307 304 304 306 309 310 311 312 311 310 308 306 303 302 303 304 304 303 302 300 299 298 298 299 299 297 296 295 295 295 295 296 296 295 292 292 295 296 293 291 290 290 289 288 287 286 284 283 283 283 283 283
194 196 198 198 199 200 200 201 207 215 222 229 233 233 230 232 239 246 254 261 268 269 267 268 277 287 294 300 304 308 309 306 305 306 306 303 302 301 304 308 310 310 311 311 309 308 307 305 304 305 306 305 304 303 301 299 297 297 297 297 297 295 295 295 296 297 298 299 298 296 293 294 296 296 293 292 291 291 291 290 288 288 287 287 286 285 284 284
193 193 193 195 196 196 197 200 207 214 220 226 226 224 224 230 240 252 260 261 260 262 269 278 289 297 302 306 308 309 307 304 302 302 299 298 301 304 308 310 311 312 312 313 311 311 309 307 307 306 305 305 305 304 303 302 300 299 299 299 299 299 299 299 299 300 300 299 298 296 294 294 295 296 295 293 292 291 292 292 291 291 290 290 290 289 288 287
193 193 193 195 196 195 197 200 206 214 215 215 215 217 222 231 245 257 258 257 262 268 277 288 296 301 305 307 307 305 302 300 299 298 300 302 305 309 313 316 316 315 315 315 313 312 311 309 308 307 308 309 309 309 308 306 305 304 302 303 303 303 302 301 301 301 301 301 302 300 296 295 296 297 297 296 294 294 294 294 294 294 293 293 293 293 293 293
195 194 194 195 196 196 198 201 205 209 209 210 215 221 230 240 251 255 258 264 271 279 288 296 301 302 303 300 296 297 299 302 303 302 304 305 309 315 321 323 320 317 316 315 315 313 314 313 312 312 312 311 310 311 309 307 307 306 304 305 305 304 304 304 304 304 305 306 306 303 299 299 300 302 302 300 299 299 298 298 298 298 299 299 299 300 300 300
196 197 195 195 196 198 200 202 205 207 211 217 224 232 241 248 254 258 266 276 284 290 296 298 298 294 290 290 292 299 305 308 307 305 308 313 318 323 326 327 325 321 319 320 320 319 318 316 313 312 311 309 309 308 307 307 308 309 309 310 311 311 310 308 308 308 309 310 310 307 303 302 303 305 305 304 303 303 303 304 304 305 306 306 306 306 305 305
198 200 197 196 197 198 202 204 207 214 220 227 233 240 246 251 258 267 274 280 285 289 289 284 280 281 289 297 298 302 307 308 311 317 322 325 326 326 328 330 328 324 322 322 322 320 316 313 310 309 309 308 309 309 310 311 312 314 315 315 315 315 313 312 312 313 313 315 316 311 306 305 306 308 309 308 308 308 309 310 311 312 312 312 311 310 309 307
199 200 198 196 196 197 200 204 211 219 223 225 229 233 238 249 257 261 267 272 275 274 275 281 283 290 297 302 301 306 313 317 326 333 332 332 330 329 328 326 325 323 322 320 318 316 313 312 311 311 312 311 312 313 314 315 317 320 320 319 318 317 319 319 319 319 320 320 319 312 306 307 310 313 314 314 313 314 314 315 315 315 315 314 314 312 311 309
198 198 197 196 194 194 197 202 209 211 203 199 204 212 221 228 230 235 245 255 268 275 281 284 284 294 301 308 320 327 333 336 341 339 333 332 331 329 326 322 320 320 319 317 316 316 315 315 317 319 320 319 318 317 318 321 324 324 323 323 323 323 325 326 325 325 324 322 319 313 306 308 315 317 316 316 316 315 315 315 315 315 315 315 314 313 312 310
195 193 192 192 189 188 190 192 191 179 171 175 183 189 194 196 195 197 205 202 186 218 254 284 293 315 335 341 352 353 351 349 344 340 336 332 329 328 325 320 321 322 321 322 323 324 323 323 324 324 325 324 322 322 325 328 328 327 327 327 327 326 326 326 327 326 324 320 318 314 308 312 319 320 318 317 315 315 314 314 313 314 314 313 313 312 310 309
187 185 185 183 180 178 175 172 165 160 160 165 170 172 172 167 156 150 143 141 142 135 41 11 6 18 14 9 8 2 356 349 343 341 338 333 331 331 331 330 331 331 330 330 329 329 328 328 328 328 329 328 326 329 331 331 330 330 328 326 326 326 325 326 326 324 322 318 315 313 310 314 320 319 318 317 315 315 314 313 313 312 312 312 311 310 308 307
174 174 172 169 166 163 159 156 154 153 155 157 156 151 142 134 130 125 119 111 98 78 61 47 36 30 23 22 16 3 355 348 344 341 337 336 336 337 339 339 338 336 334 333 331 331 331 331 333 334 334 332 334 336 333 331 330 327 323 323 323 323 323 324 325 324 322 319 317 314 312 316 319 318 317 316 315 315 314 313 313 312 311 310 309 308 306 305
159 158 155 153 151 150 149 147 146 145 144 142 135 127 122 118 111 101 96 89 82 73 62 50 38 31 29 26 1 350 353 349 344 343 344 345 344 343 341 340 340 338 337 335 335 335 336 338 339 339 337 338 341 337 329 325 322 320 320 321 321 322 322 323 325 325 324 321 319 317 316 318 319 318 317 316 315 315 314 313 312 312 311 309 308 306 304 303
144 143 143 143 142 142 141 138 136 132 129 124 118 116 112 108 102 97 95 88 82 73 61 51 42 35 24 10 353 350 353 352 350 348 348 346 344 343 343 343 344 342 341 341 343 344 344 344 342 340 339 340 336 329 324 323 321 321 321 320 320 324 326 325 324 324 324 322 319 317 317 319 319 318 317 316 315 314 314 313 312 311 309 307 306 304 303 302
133 133 134 134 134 132 129 126 123 120 117 115 112 111 109 107 105 100 95 90 87 77 65 52 36 24 11 5 358 354 355 355 353 348 344 344 345 348 350 350 349 349 349 348 348 348 345 342 340 338 337 334 330 327 327 326 326 325 323 323 323 325 328 328 326 324 323 321 318 317 318 318 318 318 317 316 315 315 314 313 312 311 309 307 305 304 303 302
124 125 124 124 123 121 119 118 116 115 114 113 112 111 109 107 102 98 98 96 87 73 56 34 23 16 12 11 5 0 357 353 350 347 347 349 353 356 358 356 354 353 351 348 346 345 343 340 338 337 334 332 330 330 330 328 327 325 324 325 325 325 326 326 326 324 324 322 320 319 320 320 319 319 317 317 316 315 314 314 312 311 308 307 306 305 304 302
117 117 117 116 116 115 115 115 115 115 115 116 113 110 108 105 102 101 95 81 69 56 38 27 23 19 17 13 8 3 357 353 353 354 357 1 3 3 2 358 353 350 348 346 345 343 342 340 338 336 334 332 332 331 330 328 327 326 326 326 326 324 324 326 326 325 324 324 323 322 321 321 320 319 318 317 316 316 315 314 312 310 308 307 306 305 303 301
112 112 112 112 112 112 113 113 114 115 114 113 110 109 107 101 95 88 77 65 55 48 36 27 22 18 13 8 3 359 357 359 2 5 7 7 6 2 358 355 352 349 347 346 345 344 342 339 336 335 333 332 331 330 329 328 328 328 326 324 324 323 321 322 323 325 326 325 324 322 321 321 320 319 318 318 318 318 316 314 312 310 309 308 306 304 302 300
109 109 109 109 110 111 111 110 110 109 109 109 108 104 96 87 80 72 68 61 51 47 35 23 16 11 8 5 2 2 6 10 10 10 9 5 2 358 355 354 352 350 348 345 343 342 340 337 335 333 332 331 330 329 328 329 328 326 324 323 324 325 324 322 322 325 327 325 324 322 321 321 320 319 320 320 320 319 317 315 313 311 310 309 306 304 302 300
108 109 109 108 108 107 106 105 104 105 107 107 102 94 86 80 75 70 66 56 46 38 24 16 13 10 9 11 11 13 15 13 10 8 5 3 1 357 355 353 350 348 346 343 340 339 337 336 335 333 331 330 329 328 328 328 326 324 324 324 324 326 328 327 325 325 325 325 325 323 321 321 320 321 321 320 320 318 317 315 313 312 310 309 307 306 304 302
106 107 106 105 105 104 104 104 104 106 106 102 96 90 85 79 72 66 56 43 32 23 16 14 14 16 19 21 19 18 17 13 8 5 3 2 358 354 352 348 345 344 342 341 338 336 335 335 334 332 331 330 329 328 327 325 322 322 324 325 326 328 328 328 327 326 325 325 324 322 322 320 320 320 320 320 320 318 316 314 312 310 308 307 306 305 304 302
105 105 105 105 106 107 107 107 107 106 101 94 89 84 78 70 60 52 43 30 21 19 18 21 25 26 26 23 17 15 15 11 7 4 2 358 352 349 347 343 342 342 341 340 337 335 334 335 335 334 332 331 330 327 324 323 322 324 326 327 329 329 328 327 328 328 327 325 324 323 322 320 319 320 321 321 319 317 315 313 311 309 309 308 306 305 303 302
107 107 107 107 107 107 107 106 103 97 88 81 74 67 60 53 44 39 34 25 25 29 29 32 34 30 26 21 15 13 10 6 4 2 356 351 347 345 344 341 340 340 340 338 335 334 335 336 336 335 333 331 328 325 325 325 326 327 328 328 328 327 327 328 328 327 325 324 324 323 322 320 320 321 322 321 319 317 316 314 313 312 311 309 308 306 305 303
106 105 104 104 104 102 100 96 90 82 75 70 64 57 51 43 36 33 33 34 40 41 39 38 35 29 24 18 13 11 5 1 358 354 350 347 345 342 339 339 338 338 338 335 333 334 336 338 336 334 332 330 328 328 328 328 328 328 328 327 327 326 327 327 326 325 323 323 323 323 323 322 321 322 323 321 320 319 318 317 315 314 313 311 310 309 308 306
101 100 99 98 98 96 92 86 79 73 68 64 60 55 50 42 38 39 41 46 48 43 38 36 32 25 19 13 9 5 360 355 351 349 347 344 342 339 337 337 336 335 334 333 334 336 338 338 336 333 332 330 330 331 330 329 328 328 327 326 327 327 326 325 324 324 324 324 325 326 325 324 323 324 324 322 321 320 319 317 316 315 315 315 314 312 310 309
96 97 97 95 93 89 84 78 72 68 64 60 55 53 53 51 53 56 51 49 46 40 35 30 25 18 12 6 2 358 354 349 346 345 343 340 339 338 336 335 334 333 335 337 337 338 339 339 337 335 333 332 332 332 331 330 329 328 326 325 325 325 324 324 325 326 325 325 327 327 327 326 326 326 325 323 322 321 319 318 318 318 318 317 316 314 312 310
91 92 91 89 85 80 76 72 68 64 58 55 56 59 63 59 57 57 50 46 43 37 31 23 17 11 6 1 354 351 349 345 342 340 337 336 335 335 334 333 333 335 338 340 339 340 340 340 338 335 333 333 332 332 331 330 329 329 327 325 324 324 325 326 326 327 326 327 330 330 328 328 327 327 326 325 323 321 320 320 321 321 320 318 316 314 312 310
87 85 82 79 76 72 68 65 63 60 57 60 64 67 69 63 55 50 47 43 38 32 26 18 12 5 359 356 351 348 346 342 340 338 336 335 335 335 335 334 334 335 336 337 340 342 341 340 338 335 334 333 332 332 332 331 330 330 329 328 329 329 330 330 329 329 329 330 332 331 329 328 328 327 327 325 323 322 322 323 323 322 319 317 315 314 312 309
82 79 75 71 67 63 59 56 56 61 66 69 69 67 66 61 52 47 43 37 31 23 16 9 4 359 354 351 348 344 341 339 338 337 336 336 336 335 334 333 334 335 336 337 339 340 340 340 339 336 335 333 333 333 333 332 331 331 332 333 334 335 334 334 333 332 330 329 330 331 329 328 328 327 326 325 323 323 324 324 323 321 319 317 315 312 310 308
78 74 70 66 63 58 53 54 64 72 73 70 67 65 62 56 47 43 36 28 22 14 7 2 357 354 352 348 345 340 337 336 336 336 337 336 335 334 333 333 334 336 337 337 338 340 342 342 340 338 336 334 335 335 334 333 333 332 334 335 336 336 336 336 335 333 332 330 331 331 330 329 328 327 327 326 325 325 325 324 322 321 319 316 314 312 310 309
74 69 66 62 58 56 60 70 76 76 73 69 65 62 58 50 40 35 27 18 13 7 2 358 353 351 349 345 341 338 336 336 337 337 337 336 335 334 334 334 336 337 337 338 339 341 345 347 342 338 336 335 335 334 333 333 332 333 334 334 336 336 336 336 334 333 331 330 331 332 331 331 330 330 329 328 327 326 325 323 322 320 318 316 314 312 310 307
70 65 62 59 61 68 77 81 79 75 72 68 62 57 50 40 29 23 17 11 6 2 358 354 351 347 343 340 338 338 338 338 338 338 337 336 335 335 336 336 337 338 338 339 339 339 342 346 342 337 337 336 335 334 333 333 333 333 333 334 336 337 336 335 333 332 331 329 331 332 331 333 333 333 332 330 329 327 325 323 321 319 318 316 313 311 309 307
65 63 63 67 75 81 83 81 78 76 72 64 56 49 37 27 21 15 10 6 1 357 353 350 348 345 342 341 341 340 340 340 340 339 338 337 337 336 337 338 338 339 339 338 339 338 339 342 341 337 336 336 334 334 333 333 333 333 334 336 338 337 336 334 332 332 331 330 331 333 333 336 337 336 333 331 329 327 325 323 322 320 318 315 313 311 310 310
57 65 74 80 83 84 82 80 78 74 68 58 48 37 25 17 13 8 3 0 357 354 351 349 348 346 345 345 344 343 343 342 341 340 339 338 338 338 338 339 339 339 339 338 337 337 337 339 340 337 335 335 334 333 332 332 333 335 337 339 338 337 336 335 334 333 332 331 332 334 336 338 339 336 334 331 329 327 325 324 323 321 318 316 315 315 314 313
58 77 85 86 85 84 79 75 75 68 55 46 36 24 16 10 6 2 359 357 355 354 353 351 350 349 349 348 347 346 344 343 342 342 341 340 339 338 338 339 339 338 338 337 336 336 336 337 338 336 334 334 333 332 332 332 334 337 339 339 338 337 336 335 334 333 333 333 334 334 336 339 340 336 334 331 329 328 325 324 323 321 318 318 318 317 316 316
74 89 90 87 83 80 74 67 63 54 41 32 22 13 9 4 1 360 358 357 357 356 354 354 353 352 352 352 351 348 345 344 344 343 343 341 339 338 338 339 339 338 337 336 335 335 335 335 336 335 334 333 332 333 333 334 337 339 339 338 337 336 335 334 334 334 335 337 336 335 336 340 340 336 334 331 329 328 326 324 323 321 320 321 320 318 317 317
89 93 90 86 80 74 65 53 46 39 30 21 12 6 2 1 0 1 1 0 359 358 357 357 357 357 356 355 353 351 348 347 347 345 344 342 340 339 338 338 338 337 336 336 335 335 335 334 335 334 334 334 334 334 334 337 339 340 340 338 337 337 336 335 334 336 339 340 338 335 336 340 340 336 334 331 329 329 327 325 323 321 322 322 320 318 318 317
93 90 87 85 78 65 48 41 34 25 17 11 5 2 1 3 5 5 4 3 1 2 1 1 1 0 359 357 356 355 354 351 349 348 346 344 341 339 338 337 336 336 336 336 335 335 334 333 334 334 334 334 335 335 337 339 341 340 339 338 337 337 336 335 334 337 342 342 339 336 336 339 340 336 334 332 330 330 328 325 323 323 323 323 319 317 317 316
91 87 84 77 66 49 39 35 25 16 11 6 1 2 5 9 10 7 5 5 5 6 6 5 3 1 0 360 359 359 357 355 352 350 348 345 342 339 337 336 335 336 336 336 335 334 333 332 333 333 333 333 335 337 338 340 340 338 337 336 336 336 335 335 336 340 344 343 339 337 336 339 340 337 334 332 332 331 329 326 325 324 324 321 317 318 318 318
88 84 75 62 48 35 33 27 16 12 9 3 3 8 12 12 10 9 9 9 10 9 8 6 4 4 4 3 2 0 359 357 354 351 349 347 343 339 337 335 335 336 336 335 335 334 333 332 333 333 333 334 337 339 339 340 339 338 337 336 337 336 335 336 339 343 345 342 340 338 336 339 341 338 335 334 333 332 330 328 327 326 323 320 319 321 321 318
81 73 62 50 36 29 26 19 12 9 5 5 10 14 15 13 11 11 12 12 11 10 8 7 7 7 7 6 4 2 359 357 355 352 349 347 344 340 337 336 336 337 336 335 335 334 333 333 334 336 337 338 341 342 341 341 340 340 339 338 338 337 337 339 343 346 345 341 340 339 337 339 341 338 336 335 334 332 331 329 328 327 324 322 322 322 320 316
70 59 45 34 28 24 18 9 5 6 7 11 16 17 16 15 13 12 13 12 11 9 8 8 9 8 8 6 4 2 0 357 355 353 350 347 344 341 338 337 337 337 336 335 335 334 334 334 336 339 340 341 342 341 340 340 340 340 338 338 338 338 339 341 345 348 346 341 341 341 338 339 341 339 337 336 334 333 331 330 330 330 327 324 323 321 319 316
56 43 30 23 20 15 9 6 8 11 14 18 20 18 16 14 13 12 12 10 8 7 7 7 7 7 6 5 4 2 0 358 356 353 350 346 344 341 339 338 337 337 336 335 335 334 334 335 337 339 341 341 340 340 340 340 339 338 337 337 338 339 341 343 345 348 345 340 340 342 340 339 340 339 338 337 334 333 333 332 332 332 329 326 325 324 321 317
40 25 14 14 17 14 13 17 20 21 23 23 22 19 17 15 15 13 11 9 7 7 7 7 6 5 4 3 2 1 0 358 356 353 350 348 345 342 340 338 338 337 336 336 335 335 335 336 337 339 340 340 339 339 340 339 338 337 336 336 338 341 343 343 345 348 345 340 340 341 341 341 340 339 338 337 335 334 334 334 333 331 328 327 328 328 326 322
30 18 8 14 23 25 27 30 30 28 28 26 24 21 19 18 17 14 11 11 10 9 8 7 5 3 2 1 0 359 359 358 357 355 352 349 347 344 341 339 339 338 337 336 335 335 336 337 337 338 340 339 338 339 339 338 337 336 335 337 340 343 344 343 345 348 344 340 340 340 340 341 340 338 339 339 337 335 334 333 331 328 328 330 332 333 330 326
39 33 26 32 37 37 37 35 32 29 27 25 23 21 20 18 16 14 13 13 13 11 8 6 4 2 1 360 359 358 358 357 356 355 353 350 348 346 343 341 339 338 337 336 335 336 337 337 338 338 338 338 338 339 339 338 337 335 335 339 341 343 344 343 345 348 344 340 341 340 340 342 341 339 340 340 338 335 334 334 332 328 329 334 335 335 332 326
50 45 41 43 41 39 36 32 29 26 24 22 20 18 17 15 13 13 14 13 12 10 7 5 3 1 360 359 358 358 357 356 355 353 352 350 348 346 344 342 340 338 336 335 336 337 337 337 338 337 338 339 338 338 339 339 337 335 337 340 342 343 345 345 346 348 344 340 341 341 341 342 341 340 340 340 338 337 336 336 334 329 331 335 336 335 335 332
51 47 44 42 37 34 31 27 24 22 20 18 17 15 14 12 11 12 12 11 10 7 5 3 2 0 359 359 358 357 357 356 354 353 352 350 348 346 344 342 340 338 337 336 337 338 337 338 338 338 338 339 338 339 340 339 337 338 340 342 343 344 346 347 348 348 344 340 341 341 341 342 341 340 340 340 340 340 338 337 334 329 331 335 336 338 339 339
Height
5766 5768 5771 5773 5775 5777 5778 5780 5781 5783 5784 5786 5787 5788 5788 5789 5790 5790 5790 5790 5790 5790 5789 5788 5790 5791 5792 5792 5791 5791 5791 5791 5791 5791 5790 5790 5790 5789 5789 5788 5787 5786 5785 5785 5784 5783 5782 5781 5780 5779 5778 5777 5776 5775 5774 5773 5772 5771 5770 5770 5768 5767 5767 5765 5764 5763 5763 5762 5759 5758 5756 5755 5753 5751 5750 5748 5745 5743 5741 5739 5738 5737 5735 5733 5731 5730 5729 5728
5766 5768 5770 5773 5775 5776 5778 5780 5781 5783 5784 5785 5786 5787 5788 5789 5789 5789 5789 5789 5789 5789 5788 5787 5789 5790 5791 5791 5791 5790 5790 5790 5790 5790 5790 5789 5789 5788 5787 5787 5786 5785 5784 5783 5782 5781 5780 5779 5778 5777 5776 5775 5774 5773 5772 5771 5770 5769 5768 5767 5766 5765 5764 5762 5761 5760 5759 5758 5756 5754 5753 5750 5748 5746 5745 5744 5741 5739 5737 5736 5734 5733 5730 5728 5726 5725 5725 5724
5766 5768 5770 5772 5774 5776 5778 5779 5781 5782 5783 5785 5786 5787 5788 5788 5789 5789 5789 5789 5789 5788 5788 5788 5789 5790 5790 5790 5790 5790 5790 5789 5789 5789 5789 5789 5788 5787 5787 5786 5785 5784 5783 5782 5781 5780 5779 5777 5776 5775 5774 5773 5773 5771 5770 5769 5768 5766 5765 5764 5764 5763 5761 5759 5758 5757 5755 5754 5752 5751 5749 5746 5744 5743 5741 5740 5738 5735 5733 5731 5731 5729 5727 5725 5722 5721 5720 5719
5766 5768 5770 5772 5774 5776 5777 5779 5780 5782 5783 5784 5785 5786 5787 5788 5788 5788 5788 5788 5788 5788 5788 5789 5789 5790 5789 5789 5789 5789 5789 5789 5789 5788 5788 5788 5787 5786 5785 5784 5783 5782 5781 5780 5779 5778 5777 5776 5775 5774 5773 5772 5771 5770 5769 5767 5766 5764 5763 5762 5762 5760 5758 5756 5755 5754 5752 5751 5749 5748 5746 5743 5741 5739 5737 5735 5734 5732 5729 5728 5726 5725 5724 5722 5720 5718 5716 5714
5766 5768 5770 5772 5774 5776 5777 5779 5780 5782 5783 5784 5785 5786 5787 5787 5787 5787 5788 5788 5788 5788 5789 5789 5789 5789 5789 5789 5789 5789 5788 5788 5788 5787 5787 5786 5786 5785 5784 5783 5782 5781 5780 5779 5778 5777 5776 5775 5774 5772 5771 5770 5769 5768 5767 5765 5764 5763 5761 5760 5759 5758 5756 5754 5753 5751 5749 5748 5746 5744 5742 5740 5738 5735 5733 5731 5729 5727 5726 5725 5722 5720 5719 5718 5717 5715 5712 5710
5766 5768 5770 5772 5774 5776 5778 5779 5781 5782 5783 5784 5785 5786 5786 5787 5787 5787 5788 5788 5788 5788 5789 5789 5789 5789 5789 5789 5788 5788 5788 5787 5787 5786 5786 5785 5784 5784 5783 5782 5781 5780 5779 5778 5777 5776 5774 5773 5772 5771 5770 5768 5767 5766 5765 5763 5762 5761 5759 5758 5757 5755 5754 5752 5750 5748 5747 5745 5743 5740 5738 5737 5734 5732 5730 5728 5725 5722 5722 5720 5718 5716 5715 5714 5713 5712 5709 5707
5766 5768 5770 5772 5774 5776 5778 5779 5781 5782 5783 5784 5785 5786 5786 5787 5787 5787 5788 5788 5788 5788 5789 5789 5789 5788 5788 5788 5788 5787 5787 5786 5786 5785 5785 5784 5783 5783 5782 5781 5780 5779 5778 5777 5776 5774 5773 5772 5770 5769 5768 5767 5765 5764 5763 5762 5760 5759 5758 5756 5754 5753 5751 5750 5748 5746 5744 5742 5740 5736 5734 5733 5731 5729 5727 5724 5721 5719 5718 5716 5714 5712 5711 5710 5708 5706 5704 5703
5766 5769 5771 5773 5775 5777 5778 5780 5781 5782 5783 5784 5785 5786 5786 5787 5787 5787 5788 5788 5788 5789 5789 5789 5788 5788 5788 5787 5787 5786 5786 5785 5785 5784 5784 5783 5783 5782 5781 5780 5779 5778 5777 5776 5774 5773 5772 5770 5769 5768 5767 5766 5764 5763 5762 5760 5759 5757 5756 5754 5752 5751 5749 5747 5746 5744 5742 5739 5736 5733 5730 5729 5727 5725 5724 5721 5718 5717 5716 5713 5710 5708 5706 5705 5703 5701 5699 5697
5767 5769 5771 5773 5775 5777 5778 5780 5781 5782 5783 5784 5785 5786 5786 5787 5787 5788 5788 5788 5788 5789 5788 5788 5788 5787 5787 5786 5786 5786 5785 5785 5785 5784 5784 5783 5782 5781 5781 5780 5779 5777 5776 5775 5773 5772 5771 5770 5768 5767 5766 5765 5763 5762 5760 5759 5757 5755 5754 5752 5751 5749 5747 5745 5743 5741 5739 5737 5734 5729 5726 5726 5724 5721 5720 5718 5717 5714 5713 5710 5706 5705 5702 5700 5698 5697 5695 5693
5767 5769 5771 5773 5775 5777 5778 5780 5781 5782 5783 5784 5785 5786 5786 5787 5787 5788 5788 5788 5788 5788 5788 5788 5787 5787 5786 5786 5786 5786 5785 5785 5784 5784 5783 5783 5782 5782 5781 5780 5778 5776 5775 5774 5772 5771 5770 5769 5768 5766 5765 5763 5762 5760 5759 5757 5755 5753 5752 5750 5749 5747 5745 5743 5741 5739 5737 5734 5731 5726 5723 5723 5721 5720 5718 5716 5714 5712 5709 5706 5703 5700 5697 5695 5693 5691 5689 5687
5767 5769 5771 5774 5775 5777 5779 5780 5781 5782 5784 5785 5785 5786 5787 5787 5787 5788 5788 5788 5788 5788 5788 5787 5787 5787 5787 5786 5786 5786 5785 5785 5784 5784 5783 5783 5782 5781 5780 5779 5777 5776 5774 5773 5772 5771 5769 5768 5767 5765 5763 5762 5760 5759 5757 5756 5754 5752 5750 5748 5747 5746 5744 5741 5739 5737 5734 5732 5728 5722 5718 5719 5719 5718 5715 5712 5710 5708 5705 5703 5699 5696 5693 5690 5688 5686 5683 5680
5767 5770 5772 5774 5776 5777 5779 5780 5782 5783 5784 5785 5786 5786 5787 5787 5787 5788 5788 5788 5788 5788 5788 5788 5788 5787 5787 5787 5786 5786 5785 5785 5784 5784 5783 5783 5782 5781 5780 5778 5777 5775 5774 5773 5771 5770 5768 5767 5765 5764 5762 5761 5760 5758 5757 5755 5753 5751 5749 5746 5744 5743 5741 5739 5736 5734 5731 5729 5726 5721 5714 5714 5717 5716 5712 5708 5706 5703 5701 5699 5696 5692 5689 5686 5683 5681 5678 5675
5768 5770 5772 5774 5776 5778 5779 5781 5782 5783 5784 5785 5786 5786 5787 5787 5788 5788 5788 5788 5788 5788 5788 5788 5788 5787 5787 5787 5786 5786 5786 5785 5785 5784 5783 5782 5781 5780 5779 5777 5776 5775 5773 5772 5770 5769 5767 5766 5765 5763 5762 5760 5758 5757 5755 5753 5751 5749 5747 5745 5742 5740 5738 5737 5734 5731 5728 5725 5722 5718 5711 5710 5714 5713 5710 5706 5702 5699 5697 5695 5692 5688 5685 5682 5679 5676 5673 5670
5768 5770 5772 5774 5776 5778 5780 5781 5782 5783 5784 5785 5786 5786 5787 5787 5788 5789 5789 5789 5789 5789 5789 5788 5788 5788 5788 5787 5787 5787 5786 5786 5785 5784 5783 5782 5781 5780 5779 5777 5776 5774 5773 5771 5770 5768 5767 5765 5764 5762 5761 5759 5757 5755 5753 5751 5749 5747 5745 5744 5742 5739 5737 5735 5732 5729 5725 5721 5718 5714 5708 5707 5710 5708 5705 5703 5699 5696 5693 5690 5688 5684 5681 5678 5675 5671 5668 5665
5768 5770 5772 5774 5777 5778 5780 5781 5782 5783 5784 5785 5786 5787 5788 5788 5789 5789 5789 5789 5789 5789 5789 5789 5789 5789 5789 5788 5788 5787 5786 5786 5785 5784 5783 5782 5780 5779 5778 5777 5775 5774 5773 5771 5769 5768 5766 5764 5763 5761 5759 5757 5755 5753 5751 5749 5747 5746 5744 5742 5740 5738 5735 5732 5729 5726 5723 5718 5715 5711 5705 5705 5707 5704 5700 5697 5694 5691 5688 5685 5682 5679 5677 5674 5670 5667 5663 5659
5768 5771 5773 5775 5777 5779 5780 5781 5782 5783 5785 5786 5787 5788 5789 5789 5790 5790 5790 5790 5790 5790 5790 5790 5790 5790 5789 5789 5788 5788 5787 5786 5785 5784 5783 5782 5781 5779 5778 5777 5775 5774 5772 5770 5769 5767 5765 5763 5761 5759 5758 5756 5754 5751 5749 5747 5746 5744 5742 5740 5738 5735 5733 5730 5726 5723 5719 5715 5711 5707 5702 5703 5703 5699 5695 5692 5689 5687 5683 5680 5677 5674 5671 5668 5666 5663 5659 5655
5769 5771 5773 5775 5777 5779 5780 5781 5783 5784 5786 5787 5789 5789 5790 5791 5791 5791 5791 5792 5791 5791 5791 5791 5791 5791 5790 5789 5789 5788 5787 5786 5785 5784 5783 5782 5781 5779 5778 5776 5775 5773 5771 5769 5768 5766 5764 5762 5760 5759 5757 5754 5751 5750 5748 5747 5745 5743 5740 5737 5734 5731 5728 5726 5723 5720 5716 5711 5707 5703 5698 5698 5698 5694 5691 5688 5685 5682 5678 5675 5672 5669 5666 5663 5660 5657 5654 5651
5769 5772 5774 5776 5778 5779 5781 5783 5785 5786 5788 5789 5790 5791 5791 5792 5792 5792 5792 5792 5792 5792 5792 5792 5792 5791 5791 5790 5789 5788 5788 5787 5786 5784 5783 5782 5781 5779 5777 5776 5774 5772 5770 5768 5767 5765 5763 5761 5759 5757 5754 5751 5750 5748 5747 5744 5742 5739 5736 5733 5731 5727 5723 5721 5719 5716 5713 5707 5703 5700 5696 5694 5692 5689 5687 5684 5680 5677 5674 5670 5667 5664 5660 5657 5654 5651 5648 5645
5771 5774 5776 5778 5780 5782 5784 5785 5787 5789 5790 5791 5791 5792 5792 5793 5793 5793 5793 5793 5793 5793 5793 5793 5793 5792 5791 5791 5790 5789 5788 5787 5786 5784 5783 5781 5780 5778 5776 5775 5773 5771 5769 5768 5766 5764 5762 5760 5757 5755 5752 5750 5748 5745 5742 5739 5736 5734 5731 5728 5726 5723 5720 5716 5714 5711 5709 5705 5699 5696 5694 5691 5688 5685 5682 5680 5676 5672 5669 5665 5661 5658 5654 5650 5647 5644 5641 5638
5774 5777 5779 5781 5783 5784 5786 5788 5789 5790 5791 5792 5793 5793 5793 5794 5794 5794 5794 5794 5794 5794 5794 5794 5793 5793 5792 5791 5790 5789 5788 5787 5786 5784 5782 5781 5779 5777 5776 5774 5772 5771 5769 5767 5765 5763 5760 5758 5755 5753 5750 5748 5745 5741 5738 5736 5733 5730 5727 5724 5721 5719 5717 5713 5710 5707 5704 5701 5695 5691 5689 5686 5683 5680 5677 5674 5671 5667 5663 5659 5656 5652 5648 5644 5641 5637 5634 5630
5778 5780 5782 5784 5785 5787 5788 5790 5791 5792 5793 5793 5794 5794 5794 5795 5795 5795 5795 5795 5795 5795 5795 5795 5794 5794 5793 5792 5790 5789 5788 5787 5785 5784 5782 5780 5779 5777 5775 5774 5772 5770 5767 5765 5763 5760 5758 5755 5753 5750 5748 5745 5741 5738 5735 5732 5730 5726 5723 5721 5717 5715 5714 5711 5706 5703 5700 5696 5691 5686 5684 5681 5677 5674 5671 5668 5664 5661 5657 5653 5649 5646 5642 5638 5634 5630 5627 5623
5781 5783 5785 5786 5788 5789 5791 5792 5793 5794 5794 5795 5795 5796 5796 5796 5796 5796 5796 5796 5796 5796 5796 5795 5795 5794 5793 5791 5790 5789 5788 5786 5785 5783 5781 5780 5778 5777 5775 5773 5771 5768 5766 5763 5761 5758 5756 5753 5751 5748 5745 5742 5739 5736 5732 5728 5726 5723 5719 5717 5715 5711 5710 5709 5704 5699 5695 5691 5687 5681 5678 5676 5672 5669 5665 5661 5657 5653 5649 5646 5642 5638 5634 5630 5626 5623 5620 5617
5784 5786 5788 5789 5791 5792 5793 5794 5795 5796 5796 5797 5797 5797 5798 5798 5798 5798 5797 5798 5798 5797 5797 5796 5795 5794 5792 5791 5790 5788 5787 5786 5784 5783 5781 5780 5778 5776 5774 5772 5770 5767 5764 5762 5759 5756 5754 5751 5748 5745 5742 5739 5736 5733 5730 5726 5722 5720 5717 5714 5711 5707 5704 5702 5700 5696 5691 5686 5682 5677 5674 5672 5668 5664 5660 5655 5651 5647 5642 5638 5633 5628 5624 5620 5616 5613 5610 5608
5788 5789 5790 5792 5793 5794 5795 5796 5797 5798 5799 5799 5799 5799 5799 5799 5799 5799 5799 5799 5798 5798 5797 5796 5795 5794 5792 5791 5790 5789 5788 5786 5785 5783 5781 5780 5777 5776 5773 5771 5768 5766 5763 5760 5757 5754 5751 5748 5745 5742 5739 5736 5733 5730 5728 5725 5721 5718 5715 5711 5708 5704 5700 5696 5694 5692 5689 5682 5676 5670 5669 5667 5663 5659 5654 5650 5645 5640 5635 5630 5624 5619 5615 5610 5606 5603 5599 5596
5791 5792 5793 5794 5795 5796 5797 5798 5799 5800 5800 5800 5800 5799 5800 5800 5800 5800 5800 5800 5799 5798 5797 5796 5795 5794 5793 5792 5791 5790 5788 5786 5785 5783 5781 5779 5777 5774 5772 5770 5767 5764 5761 5757 5754 5752 5749 5746 5743 5739 5736 5733 5730 5727 5724 5722 5719 5715 5712 5708 5704 5701 5698 5693 5689 5687 5685 5680 5672 5665 5661 5661 5659 5654 5648 5644 5639 5634 5629 5623 5618 5612 5607 5603 5598 5594 5590 5585
5794 5795 5796 5797 5798 5799 5799 5800 5801 5801 5801 5801 5800 5800 5801 5801 5801 5801 5801 5800 5799 5798 5797 5797 5796 5795 5793 5792 5791 5789 5788 5786 5785 5782 5780 5778 5776 5773 5770 5767 5764 5761 5758 5755 5752 5749 5746 5743 5740 5737 5733 5730 5727 5724 5721 5719 5716 5712 5708 5705 5701 5697 5694 5690 5686 5682 5679 5677 5670 5661 5656 5653 5654 5650 5643 5637 5632 5627 5622 5616 5610 5605 5599 5594 5589 5584 5579 5575
5797 5798 5798 5799 5800 5801 5801 5802 5802 5803 5802 5802 5802 5802 5802 5802 5802 5802 5801 5801 5800 5799 5798 5797 5796 5795 5794 5793 5791 5789 5787 5786 5784 5781 5779 5777 5774 5771 5768 5765 5762 5759 5756 5753 5750 5747 5745 5741 5738 5735 5731 5728 5725 5722 5718 5715 5711 5708 5705 5701 5697 5694 5690 5686 5683 5679 5676 5673 5666 5658 5651 5646 5646 5644 5637 5631 5625 5619 5614 5607 5600 5595 5589 5583 5578 5573 5568 5563
5799 5800 5801 5801 5802 5802 5803 5803 5804 5804 5803 5803 5803 5803 5804 5803 5803 5802 5802 5802 5801 5800 5799 5798 5797 5795 5794 5793 5791 5789 5787 5785 5783 5781 5779 5776 5772 5769 5766 5763 5759 5757 5754 5751 5748 5745 5743 5739 5736 5733 5729 5725 5721 5718 5714 5711 5708 5705 5701 5697 5693 5690 5687 5683 5680 5676 5672 5669 5662 5653 5646 5638 5638 5639 5630 5622 5617 5609 5602 5596 5590 5584 5578 5572 5566 5560 5555 5549
5802 5802 5803 5803 5804 5804 5804 5805 5805 5805 5805 5805 5805 5805 5805 5804 5804 5803 5803 5802 5801 5800 5799 5798 5797 5796 5794 5793 5791 5789 5787 5784 5782 5780 5777 5774 5771 5768 5764 5761 5757 5755 5753 5750 5746 5743 5740 5738 5734 5730 5726 5722 5718 5714 5711 5708 5705 5701 5698 5695 5690 5686 5684 5680 5675 5671 5666 5664 5656 5646 5639 5630 5628 5632 5624 5613 5606 5599 5592 5586 5579 5573 5566 5559 5552 5546 5540 5534
5804 5804 5805 5805 5806 5806 5806 5807 5807 5807 5807 5807 5807 5806 5806 5805 5804 5804 5804 5803 5801 5801 5799 5798 5797 5796 5794 5792 5790 5788 5786 5783 5781 5778 5775 5772 5769 5766 5763 5760 5756 5753 5749 5746 5743 5740 5737 5735 5731 5727 5723 5719 5715 5711 5708 5705 5701 5698 5694 5692 5688 5683 5679 5674 5669 5665 5661 5659 5653 5643 5635 5625 5616 5616 5614 5603 5595 5587 5580 5574 5567 5560 5552 5544 5537 5530 5524 5518
5806 5807 5807 5808 5808 5808 5808 5808 5809 5809 5808 5808 5807 5807 5806 5805 5805 5805 5804 5803 5802 5801 5800 5799 5797 5796 5794 5792 5790 5788 5785 5782 5779 5776 5774 5771 5768 5766 5762 5759 5756 5751 5747 5743 5739 5737 5734 5731 5728 5724 5720 5717 5713 5709 5705 5701 5697 5693 5688 5685 5683 5679 5675 5669 5663 5658 5653 5650 5646 5636 5627 5620 5609 5602 5598 5591 5583 5575 5568 5560 5553 5546 5539 5531 5523 5515 5508 5501
5809 5809 5810 5810 5810 5810 5810 5810 5810 5810 5809 5809 5808 5807 5807 5806 5806 5806 5805 5804 5803 5802 5801 5800 5798 5796 5794 5792 5789 5786 5783 5780 5778 5775 5772 5770 5767 5763 5760 5757 5754 5750 5747 5742 5737 5734 5732 5728 5725 5721 5717 5714 5711 5707 5703 5698 5692 5688 5683 5676 5671 5666 5662 5658 5651 5647 5643 5641 5639 5629 5618 5612 5604 5594 5588 5581 5573 5565 5557 5548 5540 5532 5524 5517 5508 5500 5494 5487
5811 5811 5812 5811 5812 5812 5811 5811 5811 5810 5810 5810 5809 5809 5808 5807 5807 5807 5806 5805 5804 5803 5802 5800 5798 5796 5794 5791 5788 5785 5782 5779 5776 5773 5770 5767 5764 5760 5757 5754 5750 5747 5744 5740 5736 5733 5730 5727 5723 5718 5714 5710 5706 5702 5698 5693 5687 5681 5675 5668 5660 5653 5648 5646 5641 5636 5633 5633 5634 5627 5615 5608 5600 5591 5584 5575 5565 5556 5547 5537 5528 5520 5511 5502 5495 5487 5481 5474
5813 5813 5813 5813 5813 5813 5812 5812 5812 5811 5811 5811 5811 5810 5809 5809 5809 5808 5807 5807 5805 5804 5802 5800 5798 5795 5793 5790 5787 5784 5781 5778 5774 5771 5768 5765 5762 5758 5755 5752 5748 5745 5741 5737 5733 5730 5726 5723 5719 5714 5710 5706 5702 5697 5693 5689 5684 5678 5672 5665 5659 5651 5643 5638 5633 5626 5620 5619 5621 5619 5611 5603 5594 5584 5575 5566 5557 5548 5539 5530 5520 5511 5501 5490 5482 5474 5467 5460
5815 5815 5815 5814 5814 5814 5813 5813 5813 5813 5813 5813 5813 5812 5810 5811 5810 5809 5808 5807 5805 5803 5801 5799 5796 5794 5791 5788 5785 5782 5779 5776 5773 5769 5766 5763 5760 5757 5753 5750 5746 5743 5739 5735 5731 5726 5723 5719 5715 5711 5706 5702 5698 5695 5690 5686 5681 5676 5670 5664 5657 5649 5640 5634 5630 5623 5613 5608 5609 5607 5601 5595 5586 5576 5567 5556 5547 5539 5529 5520 5511 5502 5492 5481 5472 5464 5457 5450
5816 5816 5816 5815 5815 5815 5815 5815 5815 5815 5814 5815 5814 5813 5812 5812 5811 5810 5808 5806 5804 5802 5800 5798 5795 5792 5790 5787 5784 5781 5778 5774 5771 5768 5765 5761 5758 5755 5751 5748 5744 5741 5737 5732 5728 5725 5721 5717 5713 5708 5704 5699 5694 5691 5687 5683 5678 5672 5667 5661 5655 5646 5636 5627 5623 5620 5611 5603 5601 5597 5590 5583 5573 5564 5556 5545 5536 5528 5519 5510 5502 5492 5482 5472 5463 5455 5448 5441
5818 5817 5817 5816 5816 5816 5817 5817 5817 5816 5816 5816 5815 5814 5814 5813 5811 5810 5808 5806 5804 5802 5799 5797 5794 5792 5789 5786 5783 5779 5776 5773 5769 5766 5763 5759 5756 5752 5749 5745 5742 5738 5734 5730 5726 5722 5719 5716 5711 5706 5701 5696 5692 5687 5683 5679 5674 5668 5662 5656 5650 5645 5637 5625 5615 5610 5604 5595 5592 5589 5580 5570 5558 5547 5540 5531 5523 5515 5507 5498 5489 5479 5470 5461 5452 5445 5437 5430
5819 5818 5818 5818 5818 5818 5819 5819 5818 5818 5818 5817 5816 5815 5814 5813 5811 5810 5808 5806 5804 5801 5799 5796 5794 5791 5788 5785 5781 5778 5775 5771 5768 5765 5761 5757 5754 5750 5746 5743 5739 5735 5731 5727 5724 5720 5716 5714 5710 5704 5699 5694 5690 5685 5680 5676 5671 5664 5656 5648 5641 5636 5631 5624 5611 5602 5594 5585 5578 5575 5572 5563 5550 5538 5528 5519 5510 5501 5491 5483 5474 5464 5456 5447 5440 5433 5425 5419
5821 5820 5820 5820 5820 5820 5821 5820 5820 5819 5819 5818 5817 5816 5815 5813 5811 5809 5807 5805 5803 5800 5798 5795 5793 5790 5787 5784 5780 5776 5773 5770 5766 5763 5759 5755 5751 5748 5744 5740 5736 5733 5729 5725 5721 5717 5713 5710 5707 5702 5697 5692 5688 5684 5679 5673 5668 5661 5654 5647 5640 5632 5625 5620 5612 5600 5590 5580 5566 5557 5557 5556 5544 5531 5521 5510 5500 5490 5479 5470 5461 5452 5444 5436 5429 5422 5416 5410
5822 5822 5822 5822 5822 5822 5823 5822 5821 5820 5819 5818 5818 5817 5815 5813 5811 5809 5807 5804 5802 5800 5797 5794 5792 5789 5786 5782 5779 5775 5771 5768 5764 5760 5757 5753 5749 5745 5742 5738 5734 5730 5726 5722 5718 5714 5710 5706 5703 5700 5695 5690 5685 5679 5674 5668 5661 5655 5649 5643 5637 5631 5622 5615 5610 5601 5589 5576 5560 5544 5542 5545 5537 5524 5514 5503 5493 5484 5471 5460 5451 5442 5434 5428 5422 5416 5410 5404
5824 5823 5824 5824 5824 5824 5825 5824 5822 5821 5820 5819 5818 5817 5815 5813 5811 5808 5806 5804 5802 5799 5796 5793 5791 5788 5784 5781 5778 5774 5770 5766 5762 5758 5755 5751 5747 5743 5739 5735 5731 5727 5723 5719 5715 5711 5706 5702 5699 5695 5691 5687 5682 5675 5669 5663 5655 5648 5641 5634 5628 5621 5613 5605 5599 5597 5589 5575 5559 5542 5534 5535 5529 5516 5507 5496 5485 5475 5463 5451 5441 5433 5427 5422 5416 5411 5406 5400
5825 5826 5826 5826 5826 5826 5826 5824 5822 5822 5821 5820 5819 5817 5815 5812 5810 5807 5805 5803 5801 5798 5796 5793 5790 5786 5783 5780 5776 5773 5769 5765 5761 5757 5753 5749 5744 5740 5736 5732 5729 5725 5720 5716 5711 5707 5702 5699 5696 5692 5687 5682 5678 5672 5665 5657 5650 5644 5637 5630 5623 5616 5609 5600 5591 5586 5582 5571 5557 5544 5534 5531 5524 5510 5498 5488 5477 5467 5456 5444 5434 5427 5421 5416 5410 5407 5403 5397
5827 5828 5828 5828 5827 5827 5825 5824 5824 5823 5822 5820 5819 5816 5814 5811 5809 5807 5805 5802 5800 5797 5795 5791 5788 5785 5782 5778 5774 5771 5767 5764 5759 5755 5751 5747 5742 5738 5733 5729 5726 5722 5717 5712 5708 5703 5698 5694 5692 5689 5686 5682 5678 5671 5663 5657 5651 5645 5639 5631 5625 5617 5608 5601 5589 5578 5571 5561 5547 5535 5527 5525 5519 5505 5490 5479 5469 5460 5449 5438 5429 5420 5414 5410 5406 5402 5397 5392
5829 5830 5829 5829 5828 5827 5826 5825 5825 5824 5822 5821 5818 5816 5813 5811 5809 5807 5804 5802 5799 5796 5793 5790 5787 5784 5780 5776 5773 5769 5765 5762 5758 5753 5749 5745 5740 5735 5731 5727 5723 5719 5714 5710 5705 5699 5694 5689 5684 5681 5677 5674 5671 5666 5660 5656 5649 5641 5634 5626 5619 5612 5602 5593 5584 5571 5563 5555 5543 5527 5515 5513 5510 5496 5482 5471 5460 5452 5442 5431 5424 5416 5409 5404 5400 5397 5392 5387
5831 5831 5831 5830 5829 5828 5827 5827 5826 5824 5822 5820 5817 5815 5813 5810 5808 5806 5804 5801 5798 5795 5793 5790 5786 5783 5779 5775 5772 5768 5764 5760 5756 5751 5747 5742 5738 5733 5728 5724 5720 5716 5712 5707 5702 5696 5691 5685 5679 5674 5666 5659 5655 5650 5644 5641 5636 5629 5623 5616 5610 5603 5593 5582 5572 5560 5550 5544 5539 5524 5505 5498 5497 5486 5472 5461 5450 5441 5432 5424 5419 5413 5405 5400 5396 5392 5387 5383
5833 5832 5832 5831 5830 5829 5828 5827 5825 5824 5822 5819 5817 5815 5813 5810 5808 5806 5803 5800 5797 5795 5792 5789 5785 5781 5778 5774 5770 5766 5762 5758 5753 5749 5744 5740 5736 5731 5726 5721 5717 5714 5709 5704 5700 5695 5689 5683 5677 5672 5665 5657 5650 5645 5638 5631 5625 5620 5614 5608 5601 5594 5583 5570 5560 5551 5540 5530 5527 5520 5501 5486 5482 5473 5461 5450 5440 5431 5423 5415 5410 5406 5400 5396 5392 5387 5383 5378
5834 5833 5833 5832 5831 5830 5828 5827 5825 5823 5821 5819 5817 5815 5813 5811 5808 5805 5802 5800 5797 5794 5791 5787 5784 5780 5776 5773 5769 5765 5761 5756 5751 5747 5742 5737 5733 5728 5724 5719 5715 5711 5707 5703 5698 5693 5687 5681 5676 5671 5666 5659 5652 5646 5639 5631 5623 5617 5610 5603 5596 5588 5577 5564 5553 5546 5535 5520 5512 5510 5499 5482 5471 5462 5452 5441 5431 5422 5414 5407 5402 5398 5394 5390 5386 5382 5377 5374
5835 5834 5833 5832 5831 5830 5828 5827 5825 5823 5821 5819 5817 5815 5812 5810 5807 5804 5802 5799 5796 5793 5790 5786 5782 5778 5775 5771 5767 5763 5759 5755 5750 5745 5741 5736 5730 5726 5720 5716 5712 5709 5705 5700 5695 5690 5685 5679 5673 5669 5664 5658 5651 5645 5638 5632 5624 5615 5608 5602 5593 5583 5570 5558 5550 5542 5531 5517 5504 5497 5490 5480 5466 5456 5448 5438 5426 5415 5406 5401 5397 5393 5389 5385 5381 5377 5373 5369
5836 5835 5834 5832 5831 5830 5828 5827 5825 5823 5821 5819 5817 5814 5812 5809 5807 5804 5801 5799 5795 5792 5788 5785 5781 5777 5773 5769 5765 5761 5757 5753 5749 5744 5739 5734 5728 5723 5718 5713 5710 5706 5701 5697 5692 5687 5682 5677 5671 5666 5661 5656 5650 5643 5636 5629 5622 5614 5607 5599 5589 5579 5567 5553 5545 5540 5528 5515 5505 5493 5485 5479 5467 5453 5444 5435 5423 5412 5404 5400 5395 5391 5387 5382 5378 5374 5369 5365
5836 5835 5834 5833 5832 5830 5829 5827 5825 5823 5821 5818 5816 5814 5811 5809 5806 5804 5801 5798 5794 5791 5787 5783 5779 5775 5771 5767 5762 5758 5753 5749 5745 5741 5736 5731 5726 5721 5716 5710 5706 5702 5697 5693 5689 5684 5679 5674 5668 5662 5658 5653 5647 5642 5635 5627 5618 5609 5603 5596 5586 5578 5569 5553 5540 5533 5520 5507 5500 5489 5477 5470 5461 5448 5437 5428 5419 5410 5402 5396 5391 5387 5383 5379 5374 5369 5365 5361
5837 5836 5835 5834 5832 5831 5829 5827 5825 5822 5820 5818 5815 5813 5810 5808 5806 5803 5800 5796 5793 5789 5785 5781 5777 5773 5769 5765 5760 5756 5751 5746 5742 5737 5733 5728 5722 5717 5713 5708 5703 5698 5694 5690 5686 5681 5676 5671 5666 5660 5655 5649 5643 5638 5633 5625 5617 5606 5597 5590 5581 5573 5566 5552 5536 5525 5512 5496 5486 5477 5466 5457 5448 5437 5429 5423 5415 5406 5397 5390 5385 5380 5378 5374 5369 5364 5360 5356
5838 5837 5836 5834 5832 5831 5829 5827 5824 5822 5820 5817 5815 5812 5810 5808 5805 5802 5798 5795 5791 5788 5784 5780 5776 5772 5767 5763 5759 5754 5749 5744 5739 5734 5729 5724 5719 5714 5709 5705 5700 5696 5692 5687 5682 5677 5671 5666 5660 5654 5649 5645 5639 5632 5626 5619 5611 5602 5590 5579 5570 5561 5555 5547 5535 5522 5509 5494 5480 5470 5461 5453 5442 5432 5423 5416 5410 5402 5393 5387 5380 5374 5371 5369 5365 5359 5354 5349